[[{"header":{"parameterUnit":"m.s-1","parameterCategory":1,"la1":30.2991,"la2":30.254,"lo1":-89.0895,"lo2":-89.0444,"dy":0.0017,"dx":0.0017,"nx":28,"ny":28,"refTime":"2025-05-26T03:00:00:Z","depth":0,"parameterNumber":2,"parameterNumberName":"U-component_of_WINDS"},"data":[0,0,0,0,0,0,0,0,0,0,0,0,0,0,0,0,0,0,0,0,0,0,0,0,0,0,0,0,0,0,0,0,0,0,0,0,0,0,0,0,0,0,0,0,0,0,0,0,0,0,0,0,0,0,0,0,0,0,-1.7756,-1.7755,0,-1.7586,-1.7585,-1.7583,-1.7463,-1.7462,-1.7461,-1.746,-1.7284,-1.728,-1.7276,0,0,0,0,0,0,0,0,0,0,0,0,0,-1.7975,-1.7972,-1.7757,-1.7754,-1.7752,-1.7587,-1.7584,-1.7582,-1.7463,-1.7462,-1.7461,-1.746,-1.7285,-1.728,-1.7276,0,0,0,0,0,0,0,0,0,0,0,0,0,-1.785,-1.7971,-1.7757,-1.7673,-1.7664,-1.7587,-1.7584,-1.7581,-1.7463,-1.7462,-1.7461,-1.7459,-1.7286,-1.7281,-1.7275,-1.7267,0,0,-1.7257,-1.7255,0,0,0,0,0,0,0,0,-1.7858,-1.7842,-1.7687,-1.7679,-1.7668,-1.7545,-1.7597,-1.7476,-1.7464,-1.7539,-1.746,-1.7459,-1.7371,-1.7358,-1.733,-1.7259,-1.7251,-1.7257,-1.7253,-1.7251,-1.7249,0,0,0,0,0,0,0,-1.7866,-1.7849,-1.7689,-1.7685,-1.7674,-1.7643,-1.7624,-1.7573,-1.7465,-1.7533,-1.7524,-1.7505,-1.7366,-1.7335,-1.7325,-1.7249,-1.7257,-1.7252,-1.7248,-1.7246,-1.7162,-1.7163,0,0,0,0,0,0,-1.7889,-1.7857,-1.7694,-1.7684,-1.7762,-1.764,-1.7619,-1.7586,-1.7465,-1.7446,-1.7507,-1.75,-1.7346,-1.7331,-1.7318,-1.7299,-1.7251,-1.7246,-1.7242,-1.716,-1.7162,-1.7163,0,0,0,0,0,0,-1.7894,-1.7875,-1.7701,-1.7768,-1.7744,-1.7638,-1.7602,-1.7583,-1.7552,-1.7446,-1.7426,-1.7496,-1.7344,-1.7326,-1.7281,-1.7291,-1.7243,-1.7238,-1.7159,-1.7161,-1.7163,-1.7263,0,0,0,0,0,0,-1.7901,-1.7878,-1.7874,-1.7769,-1.774,-1.7668,-1.7603,-1.7581,-1.7543,-1.7533,-1.743,-1.7412,-1.7342,-1.729,-1.7275,-1.7283,-1.7233,-1.7158,-1.716,-1.7162,-1.7259,-1.7268,-1.7277,0,0,0,0,0,-1.7909,-1.7909,-1.7875,-1.7856,-1.7734,-1.7669,-1.7653,-1.7573,-1.7545,-1.754,-1.7471,-1.7415,-1.7294,-1.7286,-1.7268,-1.7275,-1.7156,-1.7159,-1.7162,-1.7254,-1.7267,-1.7277,0,0,0,0,0,0,-1.8018,-1.7894,-1.7854,-1.7821,-1.7757,-1.7649,-1.764,-1.7589,-1.753,-1.7523,-1.7426,-1.7404,-1.7368,-1.7317,-1.7311,-1.726,-1.7218,-1.7217,-1.7294,-1.7305,-1.7314,-1.7326,-1.7228,0,0,0,0,0,-1.8039,-1.7997,-1.789,-1.7871,-1.7841,-1.7747,-1.7715,-1.766,-1.7589,-1.756,-1.7488,-1.7421,-1.7367,-1.7333,-1.7278,-1.7252,-1.7226,-1.7247,-1.7256,-1.7264,-1.7264,-1.7244,-1.7252,-1.7172,-1.7172,-1.7172,0,0,-1.808,-1.8007,-1.7986,-1.7891,-1.7835,-1.7792,-1.7724,-1.7683,-1.765,-1.7554,-1.7506,-1.7451,-1.7369,-1.7333,-1.7313,-1.7289,-1.7281,-1.7268,-1.7275,-1.727,-1.7248,-1.7255,-1.7262,-1.7174,-1.7174,-1.7173,0,0,-1.8133,-1.8075,-1.8051,-1.7996,-1.7912,-1.7849,-1.7844,-1.7744,-1.7704,-1.7655,-1.7582,-1.7541,-1.7451,-1.7395,-1.7355,-1.7388,-1.7333,-1.7373,-1.742,-1.7402,-1.7408,-1.7413,-1.7423,-1.7428,-1.7373,-1.7374,-1.7374,0,-1.8195,-1.8129,-1.8046,-1.8008,-1.7968,-1.788,-1.7855,-1.7805,-1.7707,-1.7681,-1.7656,-1.7541,-1.7479,-1.7428,-1.7436,-1.7407,-1.7397,-1.7383,-1.7414,-1.7418,-1.7422,-1.743,-1.7434,-1.7379,-1.7378,-1.7378,-1.7377,0,-1.8208,-1.8163,-1.8154,-1.8062,-1.8021,-1.799,-1.7902,-1.787,-1.7819,-1.7758,-1.7709,-1.7633,-1.756,-1.7544,-1.7493,-1.7485,-1.7473,-1.7433,-1.7388,-1.7436,-1.7442,-1.7444,-1.7386,-1.7384,-1.7383,-1.7382,0,0,-1.8323,-1.8186,-1.8184,-1.814,-1.8041,-1.8005,-1.797,-1.7899,-1.7873,-1.7809,-1.7775,-1.7702,-1.7664,-1.7618,-1.756,-1.7545,-1.7574,-1.7506,-1.7503,-1.752,-1.7558,-1.7588,-1.7593,-1.7538,-1.7538,-1.7539,-1.7564,0,-1.8359,-1.8292,-1.8216,-1.8174,-1.8131,-1.8048,-1.8017,-1.7952,-1.7895,-1.785,-1.7786,-1.7735,-1.769,-1.7661,-1.7643,-1.7575,-1.758,-1.7572,-1.7504,-1.7503,-1.7525,-1.7596,-1.7627,-1.7654,-1.7566,-1.7567,-1.7567,0,-1.8392,-1.8332,-1.8286,-1.819,-1.8169,-1.8143,-1.8071,-1.803,-1.7954,-1.7914,-1.7864,-1.7802,-1.776,-1.7723,-1.7662,-1.7658,-1.7626,-1.7589,-1.7588,-1.7576,-1.7536,-1.7584,-1.7662,-1.7665,-1.757,-1.757,-1.757,0,-1.8478,-1.8386,-1.8346,-1.8312,-1.82,-1.8183,-1.8135,-1.8058,-1.8021,-1.7959,-1.7933,-1.7867,-1.783,-1.778,-1.7702,-1.7682,-1.7649,-1.7605,-1.7613,-1.7615,-1.7607,-1.7608,-1.7679,-1.7591,-1.7591,-1.7591,-1.7591,0,-1.8525,-1.85,-1.8383,-1.8359,-1.8328,-1.8241,-1.8212,-1.8157,-1.809,-1.8052,-1.7976,-1.7942,-1.7842,-1.7796,-1.7735,-1.7693,-1.7678,-1.7643,-1.7626,-1.7648,-1.7652,-1.7624,-1.7619,-1.7592,-1.7592,-1.7592,-1.7592,0,-1.8615,-1.8537,-1.8487,-1.8385,-1.8359,-1.834,-1.8252,-1.8224,-1.8164,-1.8117,-1.8101,-1.8005,-1.7947,-1.7865,-1.7782,-1.7741,-1.7707,-1.7682,-1.7732,-1.7722,-1.7733,-1.7733,-1.7786,-1.7788,-1.7702,-1.7703,-1.7704,0,-1.8649,-1.8628,-1.8523,-1.8493,-1.8448,-1.84,-1.8361,-1.8275,-1.8238,-1.8151,-1.8133,-1.807,-1.8014,-1.7925,-1.7847,-1.7783,-1.7755,-1.7778,-1.7744,-1.7767,-1.7752,-1.7754,-1.775,-1.7785,-1.7786,-1.7788,-1.7789,0,-1.8717,-1.8679,-1.8627,-1.8561,-1.8517,-1.846,-1.84,-1.8379,-1.828,-1.8242,-1.8182,-1.8139,-1.8054,-1.7992,-1.7917,-1.7866,-1.7811,-1.78,-1.7798,-1.7819,-1.7848,-1.783,-1.7752,-1.7799,-1.7798,-1.7797,-1.7796,-1.7796,-1.8778,-1.8755,-1.8678,-1.8621,-1.8567,-1.8513,-1.8482,-1.8417,-1.8366,-1.829,-1.8243,-1.8185,-1.811,-1.8004,-1.7956,-1.7909,-1.7886,-1.7884,-1.7882,-1.7883,-1.7889,-1.7858,-1.7895,-1.7895,-1.7895,-1.7894,-1.7894,0,-1.8841,-1.8787,-1.8736,-1.8654,-1.861,-1.8563,-1.8494,-1.846,-1.841,-1.8344,-1.8291,-1.8222,-1.8161,-1.8079,-1.8012,-1.799,-1.7962,-1.7975,-1.7974,-1.7963,-1.7915,-1.7922,-1.7998,-1.7998,-1.7998,-1.7998,-1.7998,-1.7998,-1.8868,-1.8825,-1.8778,-1.8707,-1.8653,-1.8596,-1.8561,-1.851,-1.8457,-1.8383,-1.8332,-1.828,-1.8208,-1.8135,-1.8076,-1.8053,-1.8031,-1.8051,-1.8021,-1.7976,-1.7967,-1.7958,-1.7964,-1.8048,-1.8048,-1.8073,-1.8073,-1.8073]},{"header":{"parameterUnit":"m.s-1","parameterCategory":1,"la1":30.2991,"la2":30.254,"lo1":-89.0895,"lo2":-89.0444,"dy":0.0017,"dx":0.0017,"nx":28,"ny":28,"refTime":"2025-05-26T03:00:00:Z","depth":0,"parameterNumber":3,"parameterNumberName":"V-component_of_WINDS"},"data":[0,0,0,0,0,0,0,0,0,0,0,0,0,0,0,0,0,0,0,0,0,0,0,0,0,0,0,0,0,0,0,0,0,0,0,0,0,0,0,0,0,0,0,0,0,0,0,0,0,0,0,0,0,0,0,0,0,0,4.5122,4.5122,0,4.5154,4.5155,4.5155,4.5153,4.5153,4.5152,4.5152,4.5182,4.5183,4.5184,0,0,0,0,0,0,0,0,0,0,0,0,0,4.5055,4.5056,4.5122,4.5122,4.5122,4.5154,4.5155,4.5155,4.5153,4.5153,4.5152,4.5152,4.5181,4.5183,4.5184,0,0,0,0,0,0,0,0,0,0,0,0,0,4.5085,4.5056,4.5121,4.5125,4.5126,4.5154,4.5155,4.5155,4.5154,4.5153,4.5152,4.5152,4.5181,4.5183,4.5185,4.521,0,0,4.519,4.5191,0,0,0,0,0,0,0,0,4.5083,4.5087,4.5124,4.5125,4.5126,4.5149,4.5142,4.5173,4.5154,4.5143,4.5152,4.5151,4.5171,4.5174,4.5181,4.5211,4.5212,4.519,4.5191,4.5192,4.5193,0,0,0,0,0,0,0,4.5081,4.5086,4.5134,4.5125,4.5126,4.5125,4.5128,4.5148,4.516,4.5144,4.5144,4.5148,4.5172,4.518,4.5182,4.5213,4.519,4.5192,4.5193,4.5194,4.5265,4.5265,0,0,0,0,0,0,4.5079,4.5084,4.5133,4.5135,4.5103,4.5126,4.513,4.5142,4.516,4.5162,4.5149,4.5148,4.5177,4.518,4.5183,4.5214,4.5192,4.5194,4.5195,4.5264,4.5265,4.5266,0,0,0,0,0,0,4.5077,4.5083,4.5132,4.511,4.5116,4.5128,4.5142,4.5143,4.5151,4.5164,4.5166,4.5155,4.5176,4.5181,4.5203,4.5215,4.5195,4.5196,4.5263,4.5264,4.5265,4.5275,0,0,0,0,0,0,4.5075,4.5083,4.5093,4.511,4.5117,4.5153,4.5142,4.5144,4.5155,4.5154,4.517,4.5172,4.5176,4.5201,4.5205,4.5217,4.5198,4.5262,4.5263,4.5265,4.5274,4.5277,4.5279,0,0,0,0,0,4.5073,4.5093,4.5093,4.5099,4.5131,4.5153,4.5157,4.5163,4.5156,4.5166,4.5174,4.5171,4.5213,4.5203,4.5208,4.5221,4.5261,4.5263,4.5265,4.5273,4.5276,4.5279,0,0,0,0,0,0,4.5076,4.5096,4.5096,4.5123,4.5137,4.5153,4.5166,4.5166,4.5181,4.5179,4.5184,4.5188,4.5211,4.5218,4.5206,4.5246,4.5236,4.5239,4.5241,4.5244,4.5246,4.5244,4.5199,0,0,0,0,0,4.508,4.5098,4.5114,4.5136,4.5143,4.5153,4.5163,4.5167,4.518,4.5186,4.5195,4.5208,4.5224,4.5234,4.5249,4.5275,4.5278,4.5286,4.5289,4.5291,4.5293,4.5308,4.5311,4.5271,4.5271,4.5271,0,0,4.5088,4.5101,4.5112,4.5137,4.5148,4.5166,4.5158,4.5177,4.519,4.5188,4.5211,4.5218,4.5233,4.5257,4.5268,4.5264,4.5305,4.5293,4.5294,4.5296,4.531,4.5313,4.5317,4.5273,4.5272,4.5272,0,0,4.5112,4.5123,4.5144,4.5155,4.5172,4.5179,4.5184,4.5201,4.5206,4.5229,4.5229,4.5243,4.5271,4.5281,4.529,4.5318,4.5317,4.5323,4.5336,4.535,4.5353,4.5356,4.5366,4.537,4.5325,4.5325,4.5325,0,4.5119,4.5147,4.5154,4.5173,4.5184,4.5185,4.5205,4.5215,4.5236,4.5243,4.5238,4.5273,4.5282,4.531,4.5317,4.5324,4.5329,4.5321,4.5352,4.5355,4.5358,4.5368,4.5372,4.5326,4.5326,4.5326,4.5326,0,4.5155,4.5174,4.5188,4.521,4.5223,4.5242,4.5251,4.5263,4.5265,4.5272,4.5295,4.5307,4.5325,4.5332,4.5333,4.5359,4.5356,4.5351,4.5342,4.5362,4.5372,4.5376,4.5327,4.5327,4.5327,4.5326,0,0,4.5181,4.5208,4.5213,4.5223,4.5242,4.5257,4.5276,4.5295,4.5305,4.5319,4.5335,4.5358,4.5355,4.5365,4.5368,4.538,4.5402,4.5374,4.5374,4.5379,4.5432,4.5435,4.544,4.5401,4.5402,4.5402,4.5431,0,4.5207,4.5243,4.525,4.5281,4.5299,4.53,4.5317,4.533,4.5337,4.5353,4.536,4.5377,4.5371,4.5377,4.5389,4.5397,4.5413,4.5395,4.5416,4.5416,4.5413,4.5445,4.5448,4.5474,4.5434,4.5435,4.5435,0,4.5242,4.526,4.5293,4.531,4.5318,4.5333,4.5351,4.5366,4.5381,4.5385,4.5397,4.5399,4.5418,4.5408,4.5434,4.5422,4.5431,4.5436,4.5437,4.5439,4.5427,4.5448,4.5483,4.5487,4.5441,4.5441,4.544,0,4.5259,4.529,4.5314,4.5322,4.5343,4.5354,4.5363,4.5378,4.5389,4.5404,4.5411,4.5428,4.5437,4.545,4.5456,4.5448,4.5482,4.5472,4.5486,4.5486,4.5493,4.5493,4.553,4.5498,4.5498,4.5498,4.5498,0,4.5287,4.5308,4.5322,4.5336,4.5359,4.5366,4.5388,4.5397,4.541,4.5425,4.5427,4.5441,4.5448,4.5464,4.5468,4.549,4.5494,4.5497,4.5498,4.5498,4.5497,4.5504,4.5502,4.5499,4.5499,4.5499,4.5499,0,4.531,4.532,4.5346,4.5365,4.537,4.5385,4.5401,4.5415,4.5422,4.5442,4.5447,4.5458,4.5477,4.5484,4.5505,4.5509,4.5534,4.5533,4.5529,4.553,4.5544,4.5542,4.5587,4.5593,4.5556,4.5557,4.5557,0,4.5327,4.5343,4.5364,4.5376,4.5385,4.5403,4.5415,4.5423,4.5435,4.5453,4.5465,4.5484,4.5499,4.5528,4.5537,4.5554,4.5554,4.5569,4.5557,4.5556,4.5555,4.5554,4.5556,4.5571,4.5571,4.5572,4.5572,0,4.5358,4.5363,4.538,4.54,4.5415,4.543,4.5445,4.5454,4.5464,4.5477,4.5497,4.5509,4.5532,4.555,4.5568,4.5576,4.5575,4.5576,4.558,4.5579,4.5577,4.5579,4.5536,4.5575,4.5574,4.5574,4.5574,4.5574,4.5379,4.5394,4.5411,4.5431,4.5443,4.5457,4.5472,4.5481,4.5498,4.5519,4.5522,4.5543,4.5557,4.5581,4.559,4.5606,4.5602,4.5608,4.5609,4.5611,4.5612,4.5574,4.5609,4.5608,4.5608,4.5608,4.5608,0,4.541,4.5422,4.544,4.5462,4.5477,4.5477,4.5494,4.5506,4.5525,4.5539,4.5555,4.5577,4.5595,4.5606,4.5624,4.5635,4.5635,4.5639,4.5639,4.5641,4.5614,4.5609,4.5639,4.5639,4.5639,4.5639,4.5639,4.5639,4.5429,4.5454,4.546,4.5491,4.5502,4.5524,4.5533,4.5546,4.5558,4.5583,4.5599,4.5606,4.5619,4.5638,4.5655,4.5657,4.5664,4.5669,4.5671,4.5646,4.5643,4.564,4.5635,4.567,4.567,4.5697,4.5697,4.5697]}]]